Weather Roundup
Issued by NWS Chicago, IL

Home | Current Version | Previous Version | Text Only | Print | Product List | Glossary On
Versions: 1 2 3 4 5 6 7 8 9 10 11 12 13 14 15 16 17 18 19 20 21 22 23 24 25 26 27 28 29 30 31 32 33 34 35 36 37 38 39 40 41 42 43 44 45 46 47 48 49 50
000
NZUS59 KLOT 250008
HRRLOT

CHICAGO AREA WEATHER ROUNDUP
NATIONAL WEATHER SERVICE CHICAGO/ROMEOVILLE IL
700 PM CDT SUN JUL 24 2016

NOTE: "FAIR" INDICATES FEW OR NO CLOUDS BELOW 12,000 FEET WITH NO
SIGNIFICANT WEATHER AND/OR OBSTRUCTIONS TO VISIBILITY.

* THESE STATIONS ARE NOT UNDER NWS QUALITY CONTROL. THEY ALSO MAY NOT
  REPORT WEATHER SUCH AS PRECIPITATION OR FOG.

ILZ005-006-012>014-019>023-250100-
NORTHEAST ILLINOIS

CITY           SKY/WX    TMP DP  RH WIND       PRES   REMARKS
OHARE          CLOUDY    73  68  84 S15       29.88R THUNDER
6HR MIN TEMP:  73; 6HR MAX TEMP:  93; 6HR PCP:  0.93;

MIDWAY         TSTM      78  63  59 N26G33    29.88R HX  80
6HR MIN TEMP:  78; 6HR MAX TEMP:  94; 6HR PCP:  0.03;

AURORA         CLOUDY    88  79  74 SW10      29.87R HX 103
6HR MIN TEMP:  87; 6HR MAX TEMP:  93; 6HR PCP:  0.22;

LANSING*       MOSUNNY   87  78  74 SW10      29.89R HX  99
JOLIET*        PTSUNNY   88  82  82 SW7       29.88R HX 109
WAUKEGAN       CLOUDY    87  72  60 SW12      29.83R HX  93
6HR MIN TEMP:  84; 6HR MAX TEMP:  94; 6HR PCP: TRACE;

DUPAGE AIRPORT CLOUDY    85  74  69 SE12      29.89R HX  92
6HR MIN TEMP:  83; 6HR MAX TEMP:  93; 6HR PCP:  0.16;

WHEELING       CLOUDY    77  68  73 S10       29.86R THUNDER
6HR MIN TEMP:  76; 6HR MAX TEMP:  94; 6HR PCP:  0.08;

MORRIS*          N/A    N/A N/A N/A W33       29.90R THUNDER
LEWIS AIRPORT* CLOUDY    86  78  76 SW8       29.87R HX  99
NORTHERLY ISL    N/A     72  62  71 NW35        N/A
$$

WIZ051-052-058>065-066-070>072-250100-
SOUTHEAST WISCONSIN

CITY           SKY/WX    TMP DP  RH WIND       PRES   REMARKS
MILWAUKEE      CLOUDY    92  77  61 W13G21    29.81S HX 105
6HR MIN TEMP:  88; 6HR MAX TEMP:  94; 6HR PCP: TRACE;

KENOSHA*       CLOUDY    90  77  65 W12       29.84S HX 103
RACINE*        CLOUDY    86  75  69 SW5       29.83F HX  95
BURLINGTON     CLOUDY    87  79  76 W6        29.83R HX 101
WAUKESHA       MOSUNNY   86  75  70 W17       29.84S HX  95
$$

INZ001>003-010>013-019-020-250100-
NORTHWEST INDIANA

CITY           SKY/WX    TMP DP  RH WIND       PRES   REMARKS
GARY*          PTSUNNY   90 N/A N/A SW8       29.87F
MICHIGAN CITY* NOT AVBL
RENSSELAER*    NOT AVBL
VALPARAISO     SUNNY     87  78  74 SW9       29.89F HX 100
$$

LMZ740>746-250100-
SOUTHERN LAKE MICHIGAN

STATION/POSITION TIME  SKY/WX   TEMP WIND        PRES    VSBY
                                AIR  DIR/SP/G
                 (UTC)          (F)  (DEG/KT/KT) (MB)    (MI)
HARRISON CRIB    2300            88  210/ 14/ 16   N/A
BURNHAM HARBOR   0000                290/ 12/ 45   N/A
CALUMET HARBOR   2300            89                N/A
BURNS HARBOR     2320            87  200/ 16/ 23 1011.2F
MICHIGAN CITY    2300            87  180/ 15/ 17   N/A
$$

ABBREVIATIONS USED IN REMARKS
   TC - TEMPERATURE IN CELSIUS
  WCI - WIND CHILL INDEX
   HX - HEAT INDEX
  VSB - VISIBILITY
$$




USA.gov is the U.S. government's official web portal to all federal, state and local government web resources and services.